Location: Saint Louis
(38.6272°N, 90.1978°W)
Time: 19:14:19
(UTC-05:00)

Tiangong 1 - Visible Passes

Search period start: 28 June 2016 00:00
Search period end: 08 July 2016 00:00
Orbit: 369 x 386 km, 42.8° (Epoch: 28 June)

Date Brightness Start Highest point End Pass type
(mag) Time Alt. Az. Time Alt. Az. Time Alt. Az.
28 Jun 1.0 22:12:09 10° WSW 22:15:15 84° NNW 22:17:13 20° ENE visible
28 Jun 4.2 23:49:10 10° WNW 23:49:21 11° WNW 23:49:21 11° WNW visible
29 Jun 1.1 21:10:28 10° SW 21:13:31 54° SSE 21:16:33 10° ENE visible
29 Jun 2.2 22:47:12 10° W 22:50:10 42° N 22:51:00 33° NNE visible
30 Jun 1.6 21:45:13 10° W 21:48:17 58° NNW 21:51:21 10° ENE visible
30 Jun 3.0 23:22:17 10° WNW 23:24:21 29° NW 23:24:21 29° NW visible
01 Jul 2.5 22:20:18 10° WNW 22:23:13 37° N 22:25:22 16° ENE visible
01 Jul 4.2 23:57:07 10° WNW 23:57:26 12° WNW 23:57:26 12° WNW visible
02 Jul 2.2 21:18:15 10° W 21:21:16 44° N 21:24:16 10° ENE visible
02 Jul 2.3 22:55:15 10° WNW 22:58:11 38° N 22:58:18 38° NNE visible
03 Jul 2.5 21:53:17 10° WNW 21:56:12 35° N 21:59:05 10° ENE visible
03 Jul 3.5 23:29:58 10° WNW 23:31:08 20° WNW 23:31:08 20° WNW visible
04 Jul 1.9 22:28:06 10° WNW 22:31:06 46° N 22:31:51 37° NE visible
05 Jul 2.3 21:26:10 10° WNW 21:29:06 37° N 21:32:02 10° ENE visible
05 Jul 2.6 23:02:45 10° WNW 23:04:34 32° WNW 23:04:34 32° WNW visible
06 Jul 1.4 22:00:50 10° WNW 22:03:56 61° NNE 22:05:14 30° E visible
07 Jul 2.0 20:58:54 10° WNW 21:01:55 43° N 21:04:54 10° E visible
07 Jul 1.8 22:35:31 10° WNW 22:37:57 42° WSW 22:37:57 42° WSW visible
